{"data":{"norad_id":64443,"epoch":"2026-09-20T23:30:50.874336Z","epoch_age_seconds":92922,"freshness":"FRESH","line1":"1 64443U 25130F   26263.97975549  .00014846  00000+0  44963-3 0  9997","line2":"2 64443  53.1575 259.2549 0001697  70.8029 289.3157 15.34402389 70634","mean_motion":15.34402389,"eccentricity":0.0001697,"inclination_deg":53.1575,"raan_deg":259.2549,"arg_perigee_deg":70.8029,"mean_anomaly_deg":289.3157,"bstar":0.00044963,"rev_number":7063,"period_min":93.847611964322,"perigee_km":461.53525022107,"apogee_km":463.85702898865,"semimajor_km":6840.8331396049,"source":"CELESTRAK","updated_at":"2026-09-21T09:00:35.352970Z"}}